Location: *
(33.8649°S, 62.1526°E)
Time: 12:59:47
(UTC+00:00)

Cosmos 2285 Rocket - Pass Details

Date: 17 January 2021
Orbit: 971 x 998 km, 74.0° (Epoch: 03 March)

Event Time Altitude Azimuth Distance (km) Brightness Sun altitude
Rises 17:20:12 0° 199° (SSW) 3,748 8.2 -23.3°
Reaches altitude 10° 17:22:46 10° 200° (SSW) 2,793 7.3 -23.7°
Maximum altitude 17:29:16 78° 285° (WNW) 1,029 4.1 -24.6°
Enters shadow 17:31:15 47° 1° (N) 1,296 4.3 -24.8°
